Time,TemperatureF,DewpointF,PressureIn,WindDirection,WindDirectionDegrees,WindSpeedMPH,WindSpeedGustMPH,Humidity,HourlyPrecipIn,Conditions,Clouds,dailyrainin,SoftwareType,DateUTC
2013-05-26 00:02:00,56.0,53.0,30.15,NNW,345,0.0,-999.0,90,-99.99,,,0.00,,2013-05-26 05:02:00,
2013-05-26 00:12:00,56.0,53.0,30.15,NNW,345,0.0,-999.0,90,-99.99,,,0.00,,2013-05-26 05:12:00,
2013-05-26 00:22:00,56.0,53.0,30.15,NNW,345,0.0,-999.0,90,-99.99,,,0.00,,2013-05-26 05:22:00,
2013-05-26 00:32:00,55.0,52.0,30.15,NNW,345,0.0,-999.0,90,-99.99,,,0.00,,2013-05-26 05:32:00,
2013-05-26 00:42:00,55.0,52.0,30.15,NNW,345,0.0,-999.0,90,-99.99,,,0.00,,2013-05-26 05:42:00,
2013-05-26 00:52:00,55.0,52.0,30.16,NNW,345,0.0,-999.0,90,-99.99,,,0.00,,2013-05-26 05:52:00,
2013-05-26 01:01:00,54.0,51.0,30.16,NNW,345,0.0,-999.0,90,-99.99,,,0.00,,2013-05-26 06:01:00,
2013-05-26 01:12:00,54.0,51.0,30.16,NNW,345,0.0,-999.0,90,-99.99,,,0.00,,2013-05-26 06:12:00,
2013-05-26 01:22:00,54.0,51.0,30.16,NNW,345,0.0,-999.0,91,-99.99,,,0.00,,2013-05-26 06:22:00,
2013-05-26 01:32:00,54.0,51.0,30.15,NNW,345,0.0,-999.0,91,-99.99,,,0.00,,2013-05-26 06:32:00,
2013-05-26 01:42:00,54.0,51.0,30.15,NNW,345,0.0,-999.0,91,-99.99,,,0.00,,2013-05-26 06:42:00,
2013-05-26 01:52:00,54.0,52.0,30.15,NNW,345,0.0,-999.0,92,-99.99,,,0.00,,2013-05-26 06:52:00,
2013-05-26 02:01:00,53.0,51.0,30.14,NNW,345,0.0,-999.0,92,-99.99,,,0.00,,2013-05-26 07:01:00,
2013-05-26 02:11:00,53.0,51.0,30.14,NNW,345,0.0,-999.0,92,-99.99,,,0.00,,2013-05-26 07:11:00,
2013-05-26 02:21:00,53.0,51.0,30.14,NNW,345,0.0,-999.0,92,-99.99,,,0.00,,2013-05-26 07:21:00,
2013-05-26 02:31:00,53.0,51.0,30.15,NNW,345,0.0,-999.0,93,-99.99,,,0.00,,2013-05-26 07:31:00,
2013-05-26 02:42:00,53.0,51.0,30.15,NNW,345,0.0,-999.0,93,-99.99,,,0.00,,2013-05-26 07:42:00,
2013-05-26 02:52:00,53.0,51.0,30.15,NNW,345,0.0,-999.0,93,-99.99,,,0.00,,2013-05-26 07:52:00,
2013-05-26 03:01:00,53.0,51.0,30.15,NNW,345,0.0,-999.0,93,-99.99,,,0.00,,2013-05-26 08:01:00,
2013-05-26 03:12:00,53.0,51.0,30.15,NNW,345,0.0,-999.0,93,-99.99,,,0.00,,2013-05-26 08:12:00,
2013-05-26 03:21:00,53.0,51.0,30.16,NNW,345,0.0,-999.0,94,-99.99,,,0.00,,2013-05-26 08:21:00,
2013-05-26 03:32:00,52.0,50.0,30.16,NNW,345,0.0,-999.0,94,-99.99,,,0.00,,2013-05-26 08:32:00,
2013-05-26 03:42:00,52.0,50.0,30.16,NNW,345,0.0,-999.0,94,-99.99,,,0.00,,2013-05-26 08:42:00,
2013-05-26 03:53:00,52.0,51.0,30.16,NNW,345,0.0,-999.0,95,-99.99,,,0.00,,2013-05-26 08:53:00,
2013-05-26 04:01:00,52.0,51.0,30.17,NNW,345,0.0,-999.0,95,-99.99,,,0.00,,2013-05-26 09:01:00,
2013-05-26 04:11:00,52.0,51.0,30.17,NNW,345,0.0,-999.0,95,-99.99,,,0.00,,2013-05-26 09:11:00,
2013-05-26 04:21:00,52.0,51.0,30.17,NNW,345,0.0,-999.0,95,-99.99,,,0.00,,2013-05-26 09:21:00,
2013-05-26 04:33:00,52.0,51.0,30.18,NNW,345,0.0,-999.0,96,-99.99,,,0.00,,2013-05-26 09:33:00,
2013-05-26 04:42:00,52.0,51.0,30.18,NNW,345,0.0,-999.0,96,-99.99,,,0.00,,2013-05-26 09:42:00,
2013-05-26 04:53:00,51.0,50.0,30.18,NNW,345,0.0,-999.0,95,-99.99,,,0.00,,2013-05-26 09:53:00,
2013-05-26 05:02:00,51.0,50.0,30.19,NNW,345,0.0,-999.0,95,-99.99,,,0.00,,2013-05-26 10:02:00,
2013-05-26 05:12:00,51.0,50.0,30.19,NNW,345,0.0,-999.0,95,-99.99,,,0.00,,2013-05-26 10:12:00,
2013-05-26 05:23:00,51.0,50.0,30.19,NNW,345,0.0,-999.0,96,-99.99,,,0.00,,2013-05-26 10:23:00,
2013-05-26 05:33:00,51.0,50.0,30.19,NNW,345,0.0,-999.0,96,-99.99,,,0.00,,2013-05-26 10:33:00,
2013-05-26 05:42:00,51.0,50.0,30.19,NNW,345,0.0,-999.0,96,-99.99,,,0.00,,2013-05-26 10:42:00,
2013-05-26 05:52:00,50.0,49.0,30.20,NNW,345,0.0,-999.0,96,-99.99,,,0.00,,2013-05-26 10:52:00,
2013-05-26 06:03:00,51.0,50.0,30.21,NNW,345,0.0,-999.0,97,-99.99,,,0.00,,2013-05-26 11:03:00,
2013-05-26 06:11:00,51.0,50.0,30.21,NNW,345,0.0,-999.0,97,-99.99,,,0.00,,2013-05-26 11:11:00,
2013-05-26 06:22:00,51.0,50.0,30.21,NNW,345,0.0,-999.0,97,-99.99,,,0.00,,2013-05-26 11:22:00,
2013-05-26 06:32:00,51.0,50.0,30.21,NNW,345,0.0,-999.0,97,-99.99,,,0.00,,2013-05-26 11:32:00,
2013-05-26 06:42:00,51.0,50.0,30.21,NNW,345,0.0,-999.0,97,-99.99,,,0.00,,2013-05-26 11:42:00,
2013-05-26 06:52:00,51.0,50.0,30.21,NNW,345,0.0,-999.0,97,-99.99,,,0.00,,2013-05-26 11:52:00,
2013-05-26 07:02:00,54.0,53.0,30.22,NNW,345,0.0,-999.0,97,-99.99,,,0.00,,2013-05-26 12:02:00,
2013-05-26 07:12:00,54.0,53.0,30.22,NNW,345,0.0,-999.0,97,-99.99,,,0.00,,2013-05-26 12:12:00,
2013-05-26 07:21:00,56.0,55.0,30.23,NNW,345,0.0,-999.0,98,-99.99,,,0.00,,2013-05-26 12:21:00,
2013-05-26 07:32:00,58.0,57.0,30.23,NNW,345,0.0,-999.0,96,-99.99,,,0.00,,2013-05-26 12:32:00,
2013-05-26 07:42:00,58.0,57.0,30.23,NNW,345,0.0,-999.0,96,-99.99,,,0.00,,2013-05-26 12:42:00,
2013-05-26 07:52:00,59.0,55.0,30.22,ENE,61,0.0,-999.0,86,-99.99,,,0.00,,2013-05-26 12:52:00,
2013-05-26 08:02:00,60.0,55.0,30.22,ENE,61,0.0,-999.0,84,-99.99,,,0.00,,2013-05-26 13:02:00,
2013-05-26 08:11:00,60.0,55.0,30.22,ENE,61,0.0,-999.0,84,-99.99,,,0.00,,2013-05-26 13:11:00,
2013-05-26 08:21:00,63.0,56.0,30.21,SE,131,0.0,-999.0,79,-99.99,,,0.00,,2013-05-26 13:21:00,
2013-05-26 08:32:00,64.0,57.0,30.21,South,170,0.0,-999.0,77,-99.99,,,0.00,,2013-05-26 13:32:00,
2013-05-26 08:42:00,64.0,57.0,30.21,South,170,0.0,-999.0,77,-99.99,,,0.00,,2013-05-26 13:42:00,
2013-05-26 08:52:00,65.0,57.0,30.21,South,179,0.0,-999.0,76,-99.99,,,0.00,,2013-05-26 13:52:00,
2013-05-26 09:02:00,65.0,57.0,30.21,South,179,0.0,-999.0,76,-99.99,,,0.00,,2013-05-26 14:02:00,
2013-05-26 09:11:00,65.0,57.0,30.21,South,179,0.0,-999.0,76,-99.99,,,0.00,,2013-05-26 14:11:00,
2013-05-26 09:21:00,68.0,58.0,30.20,SE,129,0.0,-999.0,71,-99.99,,,0.00,,2013-05-26 14:21:00,
2013-05-26 09:32:00,71.0,59.0,30.19,ESE,123,0.0,-999.0,65,-99.99,,,0.00,,2013-05-26 14:32:00,
2013-05-26 09:42:00,73.0,58.0,30.19,SSE,149,0.0,-999.0,60,-99.99,,,0.00,,2013-05-26 14:42:00,
2013-05-26 09:52:00,73.0,58.0,30.19,SSE,149,0.0,-999.0,60,-99.99,,,0.00,,2013-05-26 14:52:00,
2013-05-26 10:01:00,74.0,57.0,30.19,SE,135,0.0,-999.0,56,-99.99,,,0.00,,2013-05-26 15:01:00,
2013-05-26 10:12:00,74.0,57.0,30.19,SE,135,0.0,-999.0,56,-99.99,,,0.00,,2013-05-26 15:12:00,
2013-05-26 10:22:00,75.0,56.0,30.19,SE,144,0.0,-999.0,52,-99.99,,,0.00,,2013-05-26 15:22:00,
2013-05-26 10:33:00,76.0,57.0,30.19,SE,129,0.0,-999.0,52,-99.99,,,0.00,,2013-05-26 15:33:00,
2013-05-26 10:43:00,76.0,57.0,30.19,SE,129,0.0,-999.0,52,-99.99,,,0.00,,2013-05-26 15:43:00,
2013-05-26 10:53:00,77.0,56.0,30.19,SE,146,0.0,-999.0,49,-99.99,,,0.00,,2013-05-26 15:53:00,
2013-05-26 11:03:00,79.0,57.0,30.19,SSE,150,0.0,-999.0,47,-99.99,,,0.00,,2013-05-26 16:03:00,
2013-05-26 11:12:00,79.0,56.0,30.19,SSE,158,0.0,-999.0,46,-99.99,,,0.00,,2013-05-26 16:12:00,
2013-05-26 11:23:00,79.0,56.0,30.19,SSE,158,0.0,-999.0,46,-99.99,,,0.00,,2013-05-26 16:23:00,
2013-05-26 11:33:00,79.0,56.0,30.19,SSE,158,0.0,-999.0,46,-99.99,,,0.00,,2013-05-26 16:33:00,
2013-05-26 11:42:00,79.0,56.0,30.19,SSE,158,0.0,-999.0,46,-99.99,,,0.00,,2013-05-26 16:42:00,
2013-05-26 11:52:00,80.0,53.0,30.18,SE,136,0.0,-999.0,40,-99.99,,,0.00,,2013-05-26 16:52:00,
2013-05-26 12:02:00,80.0,55.0,30.17,SSE,162,0.0,-999.0,42,-99.99,,,0.00,,2013-05-26 17:02:00,
2013-05-26 12:11:00,80.0,55.0,30.17,SSE,162,0.0,-999.0,42,-99.99,,,0.00,,2013-05-26 17:11:00,
2013-05-26 12:22:00,81.0,58.0,30.16,SSE,149,0.0,-999.0,45,-99.99,,,0.00,,2013-05-26 17:22:00,
2013-05-26 12:32:00,81.0,57.0,30.16,SSW,196,0.0,-999.0,44,-99.99,,,0.00,,2013-05-26 17:32:00,
2013-05-26 12:42:00,81.0,57.0,30.16,SSW,196,0.0,-999.0,44,-99.99,,,0.00,,2013-05-26 17:42:00,
2013-05-26 12:52:00,81.0,56.0,30.16,SW,234,0.0,-999.0,43,-99.99,,,0.00,,2013-05-26 17:52:00,
2013-05-26 13:01:00,82.0,58.0,30.16,SSE,164,0.0,-999.0,44,-99.99,,,0.00,,2013-05-26 18:01:00,
2013-05-26 13:12:00,82.0,58.0,30.16,SSE,164,0.0,-999.0,44,-99.99,,,0.00,,2013-05-26 18:12:00,
2013-05-26 13:21:00,83.0,58.0,30.16,South,170,0.0,-999.0,42,-99.99,,,0.00,,2013-05-26 18:21:00,
2013-05-26 13:32:00,83.0,58.0,30.15,SW,226,0.0,-999.0,43,-99.99,,,0.00,,2013-05-26 18:32:00,
2013-05-26 13:42:00,83.0,58.0,30.15,SW,226,0.0,-999.0,43,-99.99,,,0.00,,2013-05-26 18:42:00,
2013-05-26 13:52:00,83.0,59.0,30.14,SSW,202,0.0,-999.0,44,-99.99,,,0.00,,2013-05-26 18:52:00,
2013-05-26 14:01:00,84.0,58.0,30.14,South,170,0.0,-999.0,42,-99.99,,,0.00,,2013-05-26 19:01:00,
2013-05-26 14:11:00,84.0,58.0,30.14,South,170,0.0,-999.0,42,-99.99,,,0.00,,2013-05-26 19:11:00,
2013-05-26 14:22:00,85.0,59.0,30.14,WSW,239,0.0,-999.0,41,-99.99,,,0.00,,2013-05-26 19:22:00,
2013-05-26 14:32:00,84.0,57.0,30.14,SW,235,0.0,-999.0,40,-99.99,,,0.00,,2013-05-26 19:32:00,
2013-05-26 14:42:00,84.0,57.0,30.14,SW,235,0.0,-999.0,40,-99.99,,,0.00,,2013-05-26 19:42:00,
2013-05-26 14:52:00,84.0,56.0,30.13,SSE,148,0.0,-999.0,38,-99.99,,,0.00,,2013-05-26 19:52:00,
2013-05-26 15:02:00,85.0,58.0,30.12,NNW,341,0.0,-999.0,40,-99.99,,,0.00,,2013-05-26 20:02:00,
2013-05-26 15:11:00,85.0,58.0,30.12,NNW,341,0.0,-999.0,40,-99.99,,,0.00,,2013-05-26 20:11:00,
2013-05-26 15:22:00,85.0,56.0,30.11,East,96,0.0,-999.0,37,-99.99,,,0.00,,2013-05-26 20:22:00,
2013-05-26 15:32:00,85.0,57.0,30.11,SW,216,0.0,-999.0,39,-99.99,,,0.00,,2013-05-26 20:32:00,
2013-05-26 15:42:00,85.0,57.0,30.11,SW,216,0.0,-999.0,39,-99.99,,,0.00,,2013-05-26 20:42:00,
2013-05-26 15:52:00,86.0,57.0,30.11,SW,215,0.0,-999.0,38,-99.99,,,0.00,,2013-05-26 20:52:00,
2013-05-26 16:01:00,85.0,57.0,30.10,SW,225,0.0,-999.0,38,-99.99,,,0.00,,2013-05-26 21:01:00,
2013-05-26 16:11:00,85.0,57.0,30.10,SW,225,0.0,-999.0,38,-99.99,,,0.00,,2013-05-26 21:11:00,
2013-05-26 16:22:00,85.0,56.0,30.09,SSW,195,0.0,-999.0,37,-99.99,,,0.00,,2013-05-26 21:22:00,
2013-05-26 16:33:00,86.0,56.0,30.09,SW,224,0.0,-999.0,36,-99.99,,,0.00,,2013-05-26 21:33:00,
2013-05-26 16:43:00,86.0,56.0,30.09,SW,224,0.0,-999.0,36,-99.99,,,0.00,,2013-05-26 21:43:00,
2013-05-26 16:53:00,86.0,57.0,30.09,West,273,0.0,-999.0,38,-99.99,,,0.00,,2013-05-26 21:53:00,
2013-05-26 17:02:00,85.0,57.0,30.09,SW,225,0.0,-999.0,39,-99.99,,,0.00,,2013-05-26 22:02:00,
2013-05-26 17:12:00,85.0,57.0,30.09,SW,225,0.0,-999.0,39,-99.99,,,0.00,,2013-05-26 22:12:00,
2013-05-26 17:23:00,85.0,56.0,30.08,SSW,204,0.0,-999.0,37,-99.99,,,0.00,,2013-05-26 22:23:00,
2013-05-26 17:33:00,85.0,58.0,30.08,South,190,0.0,-999.0,40,-99.99,,,0.00,,2013-05-26 22:33:00,
2013-05-26 17:42:00,85.0,56.0,30.08,SW,214,0.0,-999.0,37,-99.99,,,0.00,,2013-05-26 22:42:00,
2013-05-26 17:53:00,85.0,56.0,30.08,SW,214,0.0,-999.0,37,-99.99,,,0.00,,2013-05-26 22:53:00,
2013-05-26 18:02:00,85.0,53.0,30.07,SW,216,0.0,-999.0,34,-99.99,,,0.00,,2013-05-26 23:02:00,
2013-05-26 18:11:00,85.0,53.0,30.07,SW,216,0.0,-999.0,34,-99.99,,,0.00,,2013-05-26 23:11:00,
2013-05-26 18:22:00,85.0,53.0,30.07,SSW,203,0.0,-999.0,34,-99.99,,,0.00,,2013-05-26 23:22:00,
2013-05-26 18:32:00,85.0,53.0,30.07,SSW,202,0.0,-999.0,33,-99.99,,,0.00,,2013-05-26 23:32:00,
2013-05-26 18:43:00,85.0,53.0,30.07,SSW,202,0.0,-999.0,33,-99.99,,,0.00,,2013-05-26 23:43:00,
2013-05-26 18:52:00,84.0,53.0,30.07,SSW,212,0.0,-999.0,34,-99.99,,,0.00,,2013-05-26 23:52:00,
2013-05-26 19:02:00,83.0,58.0,30.07,SSW,212,0.0,-999.0,43,-99.99,,,0.00,,2013-05-27 00:02:00,
2013-05-26 19:11:00,83.0,58.0,30.07,SSW,212,0.0,-999.0,43,-99.99,,,0.00,,2013-05-27 00:11:00,
2013-05-26 19:21:00,80.0,59.0,30.06,SSW,213,0.0,-999.0,48,-99.99,,,0.00,,2013-05-27 00:21:00,
2013-05-26 19:32:00,75.0,58.0,30.06,SSW,213,0.0,-999.0,55,-99.99,,,0.00,,2013-05-27 00:32:00,
2013-05-26 19:42:00,75.0,58.0,30.06,SSW,213,0.0,-999.0,55,-99.99,,,0.00,,2013-05-27 00:42:00,
2013-05-26 19:52:00,72.0,58.0,30.07,SSW,213,0.0,-999.0,61,-99.99,,,0.00,,2013-05-27 00:52:00,
2013-05-26 20:01:00,71.0,59.0,30.07,SSW,213,0.0,-999.0,65,-99.99,,,0.00,,2013-05-27 01:01:00,
2013-05-26 20:11:00,71.0,59.0,30.07,SSW,213,0.0,-999.0,65,-99.99,,,0.00,,2013-05-27 01:11:00,
2013-05-26 20:22:00,70.0,58.0,30.07,SSW,213,0.0,-999.0,66,-99.99,,,0.00,,2013-05-27 01:22:00,
2013-05-26 20:31:00,69.0,58.0,30.07,SSW,213,0.0,-999.0,69,-99.99,,,0.00,,2013-05-27 01:31:00,
2013-05-26 20:42:00,68.0,58.0,30.08,SSW,213,0.0,-999.0,71,-99.99,,,0.00,,2013-05-27 01:42:00,
2013-05-26 20:52:00,68.0,58.0,30.08,SSW,213,0.0,-999.0,71,-99.99,,,0.00,,2013-05-27 01:52:00,
2013-05-26 21:01:00,67.0,58.0,30.09,SSW,213,0.0,-999.0,74,-99.99,,,0.00,,2013-05-27 02:01:00,
2013-05-26 21:11:00,67.0,58.0,30.09,SSW,213,0.0,-999.0,74,-99.99,,,0.00,,2013-05-27 02:11:00,
2013-05-26 21:21:00,66.0,58.0,30.09,SSW,213,0.0,-999.0,76,-99.99,,,0.00,,2013-05-27 02:21:00,
2013-05-26 21:32:00,66.0,59.0,30.10,SSW,213,0.0,-999.0,77,-99.99,,,0.00,,2013-05-27 02:32:00,
2013-05-26 21:42:00,66.0,59.0,30.10,SSW,213,0.0,-999.0,77,-99.99,,,0.00,,2013-05-27 02:42:00,
2013-05-26 21:52:00,65.0,58.0,30.11,SSW,213,0.0,-999.0,79,-99.99,,,0.00,,2013-05-27 02:52:00,
2013-05-26 22:02:00,65.0,58.0,30.11,SSW,213,0.0,-999.0,79,-99.99,,,0.00,,2013-05-27 03:02:00,
2013-05-26 22:11:00,65.0,58.0,30.11,SSW,213,0.0,-999.0,79,-99.99,,,0.00,,2013-05-27 03:11:00,
2013-05-26 22:21:00,64.0,58.0,30.11,SSW,213,0.0,-999.0,81,-99.99,,,0.00,,2013-05-27 03:21:00,
2013-05-26 22:33:00,64.0,58.0,30.11,SSW,213,0.0,-999.0,81,-99.99,,,0.00,,2013-05-27 03:33:00,
2013-05-26 22:43:00,64.0,58.0,30.11,SSW,213,0.0,-999.0,81,-99.99,,,0.00,,2013-05-27 03:43:00,
2013-05-26 22:53:00,63.0,57.0,30.11,SSW,213,0.0,-999.0,82,-99.99,,,0.00,,2013-05-27 03:53:00,
2013-05-26 23:02:00,63.0,58.0,30.11,SSW,213,0.0,-999.0,83,-99.99,,,0.00,,2013-05-27 04:02:00,
2013-05-26 23:12:00,63.0,58.0,30.11,SSW,213,0.0,-999.0,83,-99.99,,,0.00,,2013-05-27 04:12:00,
2013-05-26 23:23:00,63.0,58.0,30.11,SSW,213,0.0,-999.0,83,-99.99,,,0.00,,2013-05-27 04:23:00,
2013-05-26 23:33:00,62.0,57.0,30.11,SSW,213,0.0,-999.0,83,-99.99,,,0.00,,2013-05-27 04:33:00,
2013-05-26 23:42:00,62.0,57.0,30.11,SSW,213,0.0,-999.0,83,-99.99,,,0.00,,2013-05-27 04:42:00,
2013-05-26 23:52:00,62.0,57.0,30.11,SSW,213,0.0,-999.0,83,-99.99,,,0.00,,2013-05-27 04:52:00,